Regional Weather Roundup
Issued by NWS Sioux Falls, SD

Home | Current Version | Previous Version | Graphics & Text | Print | Product List | Glossary Off
Versions: 1 2 3 4 5 6 7 8 9 10 11 12 13 14 15 16 17 18 19 20 21 22 23 24 25 26 27 28 29 30 31 32 33 34 35 36 37 38 39 40 41 42 43 44 45 46 47 48 49 50

000
ASUS43 KFSD 241102
RWRFSD

WEATHER ROUNDUP FOR SE SOUTH DAKOTA/SW MINNESOTA/NW IOWA
NATIONAL WEATHER SERVICE SIOUX FALLS SD
600 AM CDT THU APR 24 2014

NOTE: "FAIR" INDICATES FEW OR NO CLOUDS BELOW 12,000 FEET WITH NO
SIGNIFICANT WEATHER AND OR OBSTRUCTIONS TO VISIBILITY.


SDZ038>040-050-052>070-241200-
SOUTHEAST SOUTH DAKOTA

CITY           SKY/WX    TMP DP  RH WIND       PRES   REMARKS
CHAMBERLAIN      N/A     47  38  71 NW8       29.75R
HURON          CLOUDY    43  41  93 N6        29.71S
MADISON        RAIN      43  43 100 N8        29.67F
MITCHELL       LGT RAIN  45  43  93 NW8       29.70S
SIOUX FALLS    LGT RAIN  46  45  96 N5        29.65F FOG
WINNER         FAIR      44  34  67 NW12      29.76R
YANKTON        CLOUDY    48  48 100 NW7       29.65F
$$

MNZ071-072-080-081-089-090-097-098-241200-
SOUTHWEST MINNESOTA

CITY           SKY/WX    TMP DP  RH WIND       PRES   REMARKS
FAIRMONT       CLOUDY    45  37  76 SE16      29.72S
JACKSON        RAIN      43  39  87 SE12      29.71F
LUVERNE        DRIZZLE   46  45  93 SE9       29.65F
MARSHALL       CLOUDY    43  37  81 SE10      29.69S
MONTEVIDEO     DRIZZLE   43  43 100 S6        29.73S
PIPESTONE      LGT RAIN  43  43 100 CALM      29.66S
REDWOOD FALLS  RAIN      43  41  93 SE13G22   29.71F FOG
TRACY          RAIN      43  42  97 SE8       29.69S
WINDOM         RAIN      43  43 100 E8        29.70F
WORTHINGTON    CLOUDY    45  37  76 SE14      29.68F
$$

IAZ001>003-012>014-020>022-031-032-NEZ013-014-SDZ071-241200-
NORTHWEST IOWA

CITY           SKY/WX    TMP DP  RH WIND       PRES   REMARKS
DENISON        CLOUDY    45  45 100 E8        29.62F
ESTHERVILLE    LGT RAIN  43  42  97 SE13      29.70S
SIOUX CITY     CLOUDY    48  46  93 SE3       29.65F
SPENCER        LGT RAIN  44  41  89 E12       29.67F
STORM LAKE     CLOUDY    43  43 100 E14       29.65F
$$

ABBREVIATIONS USED IN REMARKS
   TC - TEMPERATURE IN CELSIUS
  WCI - WIND CHILL INDEX
   HX - HEAT INDEX
  VSB - VISIBILITY




USA.gov is the U.S. government's official web portal to all federal, state and local government web resources and services.